DAL627 KOKC-KIAH

Flight info

Callsign DAL627
Flight time N/A
Altitude 35000
Route MUDDE3 OLFRD CVE GUSHR3
Aircraft B737/M-SDE2E3FGHIRWXY/LB1

Departure

Time 2026-04-25 21:18
Airport OKC Will Rogers World Airport (KOKC)

Arrival

Time N/A
Airport George Bush Intercontinental Airport (KIAH)
Time Latitude Longitude Altitude Speed Heading
2026-04-25 21:09 35.39417 -97.59808 1296 ft 0 kts 270°
2026-04-25 21:12 35.39417 -97.59820 1296 ft 4 kts 270°
2026-04-25 21:12 35.39417 -97.59833 1296 ft 4 kts 270°
2026-04-25 21:13 35.39441 -97.60006 1294 ft 12 kts 277°
2026-04-25 21:13 35.39416 -97.60080 1292 ft 5 kts 285°
2026-04-25 21:13 35.39499 -97.60187 1289 ft 21 kts 316°
2026-04-25 21:13 35.39600 -97.60307 1289 ft 20 kts 315°
2026-04-25 21:14 35.39666 -97.60387 1287 ft 20 kts 315°
2026-04-25 21:14 35.39712 -97.60420 1287 ft 9 kts
2026-04-25 21:14 35.39827 -97.60401 1288 ft 18 kts
2026-04-25 21:14 35.39947 -97.60402 1290 ft 17 kts
2026-04-25 21:15 35.40063 -97.60401 1292 ft 16 kts 359°
2026-04-25 21:15 35.40175 -97.60402 1294 ft 16 kts 359°
2026-04-25 21:15 35.40284 -97.60401 1296 ft 16 kts 360°
2026-04-25 21:15 35.40398 -97.60401 1296 ft 16 kts
2026-04-25 21:16 35.40508 -97.60401 1296 ft 15 kts
2026-04-25 21:16 35.40576 -97.60455 1296 ft 7 kts 276°
2026-04-25 21:16 35.40576 -97.60458 1296 ft 0 kts 272°
2026-04-25 21:17 35.40578 -97.60494 1297 ft 14 kts 272°
2026-04-25 21:17 35.40548 -97.60574 1296 ft 4 kts 185°
2026-04-25 21:17 35.40545 -97.60574 1296 ft 0 kts 185°
2026-04-25 21:17 35.40543 -97.60575 1296 ft 0 kts 184°
2026-04-25 21:18 35.40442 -97.60573 1295 ft 36 kts 180°
2026-04-25 21:18 35.39934 -97.60574 1289 ft 114 kts 180°
2026-04-25 21:18 35.38904 -97.60578 1359 ft 176 kts 179°
2026-04-25 21:18 35.37614 -97.60620 2233 ft 183 kts 184°
2026-04-25 21:19 35.36385 -97.60690 3428 ft 176 kts 183°
2026-04-25 21:19 35.35132 -97.60619 4342 ft 181 kts 178°
2026-04-25 21:19 35.33793 -97.60402 4781 ft 214 kts 174°
2026-04-25 21:19 35.32217 -97.60115 4978 ft 242 kts 174°
2026-04-25 21:20 35.30506 -97.59819 5261 ft 258 kts 174°
2026-04-25 21:20 35.29310 -97.59624 5811 ft 266 kts 175°
2026-04-25 21:20 35.26832 -97.59245 7249 ft 265 kts 177°
2026-04-25 21:20 35.24989 -97.58982 8254 ft 271 kts 178°
2026-04-25 21:21 35.23090 -97.58724 9221 ft 276 kts 179°
2026-04-25 21:21 35.21163 -97.58469 10187 ft 280 kts 179°
2026-04-25 21:21 35.19161 -97.58214 10661 ft 303 kts 179°
2026-04-25 21:21 35.16961 -97.57942 10888 ft 331 kts 179°
2026-04-25 21:22 35.14622 -97.57647 11502 ft 343 kts 179°
2026-04-25 21:22 35.12232 -97.57341 12341 ft 347 kts 179°
2026-04-25 21:22 35.09853 -97.57037 13206 ft 351 kts 179°
2026-04-25 21:22 35.07406 -97.56727 13987 ft 356 kts 179°
2026-04-25 21:23 35.04917 -97.56415 14709 ft 362 kts 180°
2026-04-25 21:23 35.02392 -97.56101 15418 ft 368 kts 180°
2026-04-25 21:23 34.99822 -97.55772 16151 ft 374 kts 179°
2026-04-25 21:23 34.97211 -97.55404 16861 ft 381 kts 179°
2026-04-25 21:24 34.94566 -97.54983 17574 ft 389 kts 176°
2026-04-25 21:24 34.91912 -97.54120 18229 ft 403 kts 165°
2026-04-25 21:24 34.89300 -97.52797 18860 ft 410 kts 162°
2026-04-25 21:24 34.86679 -97.51384 19511 ft 414 kts 161°
2026-04-25 21:25 34.84020 -97.49930 20170 ft 418 kts 161°
2026-04-25 21:25 34.81349 -97.48475 20792 ft 423 kts 161°
2026-04-25 21:25 34.78647 -97.47017 21399 ft 427 kts 162°
2026-04-25 21:25 34.75911 -97.45553 22010 ft 431 kts 162°
2026-04-25 21:26 34.73154 -97.44088 22591 ft 435 kts 162°
2026-04-25 21:26 34.70365 -97.42612 23192 ft 439 kts 162°
2026-04-25 21:26 34.67557 -97.41129 23690 ft 442 kts 162°
2026-04-25 21:26 34.64777 -97.39661 23750 ft 439 kts 162°
2026-04-25 21:27 34.61965 -97.38177 23795 ft 444 kts 162°
2026-04-25 21:27 34.59109 -97.36675 24108 ft 450 kts 162°
2026-04-25 21:27 34.56230 -97.35160 24636 ft 452 kts 162°
2026-04-25 21:27 34.53343 -97.33641 25160 ft 453 kts 162°
2026-04-25 21:28 34.50440 -97.32114 25678 ft 455 kts 162°
2026-04-25 21:28 34.47526 -97.30583 26143 ft 459 kts 162°
2026-04-25 21:28 34.44582 -97.29038 26556 ft 462 kts 162°
2026-04-25 21:28 34.41621 -97.27485 26969 ft 466 kts 162°
2026-04-25 21:29 34.38634 -97.25921 27369 ft 470 kts 162°
2026-04-25 21:29 34.35625 -97.24344 27787 ft 473 kts 162°
2026-04-25 21:29 34.32595 -97.22758 28172 ft 476 kts 162°
2026-04-25 21:29 34.29545 -97.21161 28542 ft 480 kts 162°
2026-04-25 21:30 34.26460 -97.19549 28891 ft 484 kts 162°
2026-04-25 21:30 34.23351 -97.17928 29224 ft 487 kts 163°
2026-04-25 21:30 34.20172 -97.16558 29546 ft 484 kts 171°
2026-04-25 21:30 34.18001 -97.15982 29766 ft 481 kts 176°
2026-04-25 21:31 34.13582 -97.15099 30173 ft 484 kts 178°